,,,PA_Meas_PMT16A,,PR_Meas_QMR101_102,,RH_Meas_QMH101,,SR_Meas_QMS101,,TA_Meas_QMH101,,GenWind,,GenWind,
date,time,status,PA,status,PR,status,RH,status,SR,status,TA,status,DirAvg,status,SpdAvg,
2010-07-08, 00:00:04,VALID,1003.16,VALID,0,VALID,90.2126,VALID,0,VALID,24.1714,VALID,169,VALID,2.13242,
2010-07-08, 00:01:04,VALID,1003.09,VALID,0,VALID,90.4415,VALID,0,VALID,24.15,VALID,175,VALID,2.29219,
2010-07-08, 00:02:04,VALID,1003.11,VALID,0,VALID,90.678,VALID,0,VALID,24.15,VALID,171,VALID,1.88711,
2010-07-08, 00:03:04,VALID,1003.06,VALID,0,VALID,90.7314,VALID,0,VALID,24.1305,VALID,164,VALID,1.85859,
2010-07-08, 00:04:04,VALID,1003.05,VALID,0,VALID,90.9222,VALID,0,VALID,24.0915,VALID,171,VALID,1.72031,
2010-07-08, 00:05:04,VALID,1003.02,VALID,0,VALID,91.1434,VALID,0,VALID,24.072,VALID,173,VALID,1.65664,
2010-07-08, 00:06:04,VALID,1003.03,VALID,0,VALID,91.1816,VALID,0,VALID,24.0525,VALID,173,VALID,1.83008,
2010-07-08, 00:07:04,VALID,1002.96,VALID,0,VALID,91.3342,VALID,0,VALID,24.0525,VALID,175,VALID,1.61172,
2010-07-08, 00:08:04,VALID,1002.96,VALID,0,VALID,91.3647,VALID,0,VALID,24.0329,VALID,171,VALID,1.69297,
2010-07-08, 00:09:04,VALID,1002.9,VALID,0,VALID,91.3876,VALID,0,VALID,24.0525,VALID,184,VALID,1.16719,
2010-07-08, 00:10:04,VALID,1002.86,VALID,0,VALID,91.2884,VALID,0,VALID,24.0134,VALID,175,VALID,1.21406,
2010-07-08, 00:11:04,VALID,1002.84,VALID,0,VALID,91.1968,VALID,0,VALID,24.0134,VALID,175,VALID,1.42031,
2010-07-08, 00:12:04,VALID,1002.81,VALID,0,VALID,91.3723,VALID,0,VALID,24.0329,VALID,182,VALID,1.35898,
2010-07-08, 00:13:04,VALID,1002.82,VALID,0,VALID,91.4105,VALID,0,VALID,24.0329,VALID,168,VALID,1.12383,
2010-07-08, 00:14:04,VALID,1002.79,VALID,0,VALID,91.1816,VALID,0,VALID,24.0329,VALID,157,VALID,1.24492,
2010-07-08, 00:15:04,VALID,1002.78,VALID,0,VALID,91.1129,VALID,0,VALID,24.0134,VALID,176,VALID,1.28203,
2010-07-08, 00:16:04,VALID,1002.79,VALID,0,VALID,91.1053,VALID,0,VALID,23.9939,VALID,157,VALID,1.12344,
2010-07-08, 00:17:04,VALID,1002.74,VALID,0,VALID,91.1816,VALID,0,VALID,23.9939,VALID,157,VALID,0.902734,
2010-07-08, 00:18:04,VALID,1002.7,VALID,0,VALID,91.2655,VALID,0,VALID,23.9726,VALID,163,VALID,0.879297,
2010-07-08, 00:19:04,VALID,1002.69,VALID,0,VALID,91.3571,VALID,0,VALID,23.9939,VALID,163,VALID,0.788281,
2010-07-08, 00:20:04,VALID,1002.67,VALID,0,VALID,91.3647,VALID,0,VALID,23.9939,VALID,165,VALID,0.939844,
2010-07-08, 00:21:04,VALID,1002.68,VALID,0,VALID,91.2121,VALID,0,VALID,23.9744,VALID,170,VALID,1.1125,
2010-07-08, 00:22:04,VALID,1002.66,VALID,0,VALID,91.2045,VALID,0,VALID,23.9744,VALID,181,VALID,1.17578,
2010-07-08, 00:23:04,VALID,1002.65,VALID,0,VALID,91.0443,VALID,0,VALID,23.9744,VALID,181,VALID,1.20391,
2010-07-08, 00:24:04,VALID,1002.63,VALID,0,VALID,91.1206,VALID,0,VALID,23.9939,VALID,181,VALID,1.12266,
2010-07-08, 00:25:04,VALID,1002.6,VALID,0,VALID,91.2121,VALID,0,VALID,23.9744,VALID,188,VALID,1.07617,
2010-07-08, 00:26:04,VALID,1002.57,VALID,0,VALID,91.1663,VALID,0,VALID,23.9744,VALID,190,VALID,0.919922,
2010-07-08, 00:27:04,VALID,1002.6,VALID,0,VALID,91.1663,VALID,0,VALID,23.9744,VALID,184,VALID,1.00508,
2010-07-08, 00:28:04,VALID,1002.6,VALID,0,VALID,91.1358,VALID,0,VALID,23.9744,VALID,166,VALID,1.04922,
2010-07-08, 00:29:04,VALID,1002.58,VALID,0,VALID,91.1434,VALID,0,VALID,23.9744,VALID,167,VALID,1.20234,
2010-07-08, 00:30:04,VALID,1002.55,VALID,0,VALID,90.9909,VALID,0,VALID,23.9957,VALID,159,VALID,1.00117,
2010-07-08, 00:31:04,VALID,1002.56,VALID,0,VALID,91.1129,VALID,0,VALID,23.9957,VALID,172,VALID,0.684375,
2010-07-08, 00:32:04,VALID,1002.52,VALID,0,VALID,91.2121,VALID,0,VALID,23.9744,VALID,165,VALID,0.679688,
2010-07-08, 00:33:04,VALID,1002.5,VALID,0,VALID,91.2503,VALID,0,VALID,23.9549,VALID,167,VALID,0.716406,
2010-07-08, 00:34:04,VALID,1002.48,VALID,0,VALID,91.2655,VALID,0,VALID,23.9549,VALID,167,VALID,0.714453,
2010-07-08, 00:35:04,VALID,1002.47,VALID,0,VALID,91.3494,VALID,0,VALID,23.914,VALID,167,VALID,0.807422,
2010-07-08, 00:36:04,VALID,1002.47,VALID,0,VALID,91.4105,VALID,0,VALID,23.9549,VALID,169,VALID,0.851172,
2010-07-08, 00:37:04,VALID,1002.43,VALID,0,VALID,91.4791,VALID,0,VALID,23.9354,VALID,158,VALID,0.619922,
2010-07-08, 00:38:04,VALID,1002.4,VALID,0,VALID,91.5249,VALID,0,VALID,23.9354,VALID,166,VALID,0.474219,
2010-07-08, 00:39:04,VALID,1002.4,VALID,0,VALID,91.5631,VALID,0,VALID,23.9354,VALID,166,VALID,0.0527344,
2010-07-08, 00:40:04,VALID,1002.38,VALID,0,VALID,91.6623,VALID,0,VALID,23.8963,VALID,166,VALID,0,
2010-07-08, 00:41:04,VALID,1002.38,VALID,0,VALID,91.7004,VALID,0,VALID,23.8963,VALID,166,VALID,0,
2010-07-08, 00:42:04,VALID,1002.35,VALID,0,VALID,91.7614,VALID,0,VALID,23.8768,VALID,166,VALID,0,
2010-07-08, 00:43:04,VALID,1002.3,VALID,0,VALID,91.792,VALID,0,VALID,23.8573,VALID,166,VALID,0.228125,
2010-07-08, 00:44:04,VALID,1002.29,VALID,0,VALID,91.792,VALID,0,VALID,23.8573,VALID,166,VALID,0.418359,
2010-07-08, 00:45:04,VALID,1002.28,VALID,0,VALID,91.8835,VALID,0,VALID,23.8768,VALID,220,VALID,0.762891,
2010-07-08, 00:46:04,VALID,1002.27,VALID,0,VALID,91.8835,VALID,0,VALID,23.875,VALID,225,VALID,0.791016,
2010-07-08, 00:47:04,VALID,1002.25,VALID,0,VALID,91.9293,VALID,0,VALID,23.9159,VALID,241,VALID,1.01484,
2010-07-08, 00:48:04,VALID,1002.24,VALID,0,VALID,91.7462,VALID,0,VALID,23.8963,VALID,249,VALID,1.33516,
2010-07-08, 00:49:04,VALID,1002.23,VALID,0,VALID,91.7157,VALID,0,VALID,23.9159,VALID,230,VALID,0.896484,
2010-07-08, 00:50:04,VALID,1002.19,VALID,0,VALID,91.8225,VALID,0,VALID,23.875,VALID,234,VALID,0.725391,
2010-07-08, 00:51:04,VALID,1002.2,VALID,0,VALID,91.8683,VALID,0,VALID,23.8963,VALID,270,VALID,0.649609,
2010-07-08, 00:52:04,VALID,1002.18,VALID,0,VALID,91.9369,VALID,0,VALID,23.8963,VALID,270,VALID,0.536719,
2010-07-08, 00:53:04,VALID,1002.17,VALID,0,VALID,92.0132,VALID,0,VALID,23.8555,VALID,269,VALID,0.48125,
2010-07-08, 00:54:04,VALID,1002.17,VALID,0,VALID,92.0361,VALID,0,VALID,23.8768,VALID,235,VALID,0.770703,
2010-07-08, 00:55:04,VALID,1002.15,VALID,0,VALID,92.059,VALID,0,VALID,23.8768,VALID,250,VALID,0.960547,
2010-07-08, 00:56:04,VALID,1002.12,VALID,0,VALID,92.0819,VALID,0,VALID,23.8768,VALID,246,VALID,0.974609,
2010-07-08, 00:57:04,VALID,1002.04,VALID,0,VALID,91.8301,VALID,0,VALID,23.8573,VALID,271,VALID,2.02109,
2010-07-08, 00:58:04,VALID,1002.05,VALID,0,VALID,91.6775,VALID,0,VALID,23.8963,VALID,265,VALID,1.14688,
2010-07-08, 00:59:04,VALID,1002.05,VALID,0,VALID,91.6165,VALID,0,VALID,23.875,VALID,229,VALID,1.06953,
2010-07-08, 01:00:04,VALID,1002.02,VALID,0,VALID,91.6851,VALID,0,VALID,23.8768,VALID,243,VALID,1.32227,
2010-07-08, 01:01:04,VALID,1002,VALID,0,VALID,91.8072,VALID,0,VALID,23.8573,VALID,237,VALID,1.08945,
2010-07-08, 01:02:04,VALID,1001.98,VALID,0,VALID,91.7385,VALID,0,VALID,23.8183,VALID,222,VALID,1.48789,
2010-07-08, 01:03:04,VALID,1001.94,VALID,0,VALID,91.6546,VALID,0,VALID,23.8378,VALID,235,VALID,1.47031,
2010-07-08, 01:04:04,VALID,1001.92,VALID,0,VALID,91.5707,VALID,0,VALID,23.8378,VALID,254,VALID,1.68633,
2010-07-08, 01:05:04,VALID,1001.9,VALID,0,VALID,91.441,VALID,0,VALID,23.8768,VALID,248,VALID,1.32656,
2010-07-08, 01:06:04,VALID,1001.86,VALID,0,VALID,91.3876,VALID,0,VALID,23.8573,VALID,225,VALID,1.53437,
2010-07-08, 01:07:04,VALID,1001.86,VALID,0,VALID,91.3037,VALID,0,VALID,23.8768,VALID,249,VALID,1.16602,
2010-07-08, 01:08:04,VALID,1001.84,VALID,0,VALID,91.3189,VALID,0,VALID,23.8768,VALID,245,VALID,1.30781,
2010-07-08, 01:09:04,VALID,1001.83,VALID,0,VALID,91.296,VALID,0,VALID,23.8573,VALID,258,VALID,1.22305,
2010-07-08, 01:10:04,VALID,1001.79,VALID,0,VALID,91.3266,VALID,0,VALID,23.8573,VALID,235,VALID,1.23594,
2010-07-08, 01:11:04,VALID,1001.82,VALID,0,VALID,91.2503,VALID,0,VALID,23.8573,VALID,256,VALID,1.30938,
2010-07-08, 01:12:04,VALID,1001.76,VALID,0,VALID,91.1892,VALID,0,VALID,23.8768,VALID,258,VALID,0.91875,
2010-07-08, 01:13:04,VALID,1001.77,VALID,0,VALID,91.1511,VALID,0,VALID,23.8573,VALID,249,VALID,0.946484,
2010-07-08, 01:14:04,VALID,1001.74,VALID,0,VALID,91.0671,VALID,0,VALID,23.8573,VALID,248,VALID,0.466406,
2010-07-08, 01:15:04,VALID,1001.74,VALID,0,VALID,91.0671,VALID,0,VALID,23.8573,VALID,309,VALID,0.597266,
2010-07-08, 01:16:04,VALID,1001.73,VALID,0,VALID,91.0748,VALID,0,VALID,23.8378,VALID,309,VALID,0.0195313,
2010-07-08, 01:17:04,VALID,1001.71,VALID,0,VALID,91.1587,VALID,0,VALID,23.8183,VALID,308,VALID,0,
2010-07-08, 01:18:04,VALID,1001.69,VALID,0,VALID,90.9832,VALID,0,VALID,23.7988,VALID,268,VALID,0.601953,
2010-07-08, 01:19:04,VALID,1001.67,VALID,0,VALID,90.9298,VALID,0,VALID,23.7988,VALID,296,VALID,0.735547,
2010-07-08, 01:20:04,VALID,1001.69,VALID,0,VALID,90.8001,VALID,0,VALID,23.8165,VALID,282,VALID,0.232812,
2010-07-08, 01:21:04,VALID,1001.68,VALID,0,VALID,90.9298,VALID,0.112286,VALID,23.8165,VALID,282,VALID,0.176953,
2010-07-08, 01:22:04,VALID,1001.66,VALID,0,VALID,91.0061,VALID,0,VALID,23.797,VALID,282,VALID,0,
2010-07-08, 01:23:04,VALID,1001.65,VALID,0,VALID,91.0748,VALID,0.112286,VALID,23.7775,VALID,264,VALID,0.0773437,
2010-07-08, 01:24:04,VALID,1001.64,VALID,0,VALID,90.9909,VALID,0,VALID,23.7579,VALID,171,VALID,1.25625,
2010-07-08, 01:25:04,VALID,1001.62,VALID,0,VALID,90.9756,VALID,0,VALID,23.8165,VALID,174,VALID,1.98672,
2010-07-08, 01:26:04,VALID,1001.61,VALID,0,VALID,90.8001,VALID,0,VALID,23.875,VALID,187,VALID,1.56758,
2010-07-08, 01:27:04,VALID,1001.62,VALID,0,VALID,90.4797,VALID,0,VALID,23.8945,VALID,190,VALID,1.69766,
2010-07-08, 01:28:04,VALID,1001.57,VALID,0,VALID,89.9761,VALID,0,VALID,23.914,VALID,176,VALID,2.11719,
2010-07-08, 01:29:04,VALID,1001.58,VALID,0,VALID,90.2737,VALID,0,VALID,23.9531,VALID,188,VALID,1.44883,
2010-07-08, 01:30:04,VALID,1001.6,VALID,0,VALID,89.8311,VALID,0,VALID,23.9531,VALID,184,VALID,1.46016,
2010-07-08, 01:31:04,VALID,1001.56,VALID,0,VALID,89.4649,VALID,0,VALID,23.9531,VALID,205,VALID,1.24219,
2010-07-08, 01:32:04,VALID,1001.54,VALID,0,VALID,89.2284,VALID,0,VALID,23.9726,VALID,179,VALID,1.15195,
2010-07-08, 01:33:04,VALID,1001.52,VALID,0,VALID,89.3276,VALID,0,VALID,23.9726,VALID,152,VALID,0.959375,
2010-07-08, 01:34:04,VALID,1001.51,VALID,0,VALID,89.3581,VALID,0,VALID,23.9531,VALID,185,VALID,1.0043,
2010-07-08, 01:35:04,VALID,1001.47,VALID,0,VALID,89.2132,VALID,0.112286,VALID,23.9336,VALID,212,VALID,0.983203,
2010-07-08, 01:36:04,VALID,1001.46,VALID,0,VALID,89.4573,VALID,0.112286,VALID,23.9336,VALID,187,VALID,0.611328,
2010-07-08, 01:37:04,VALID,1001.47,VALID,0,VALID,89.5183,VALID,0,VALID,23.914,VALID,187,VALID,0.554297,
2010-07-08, 01:38:04,VALID,1001.46,VALID,0,VALID,89.5641,VALID,0,VALID,23.8945,VALID,185,VALID,0.661719,
2010-07-08, 01:39:04,VALID,1001.46,VALID,0,VALID,89.8083,VALID,0.112286,VALID,23.8945,VALID,185,VALID,0.564062,
2010-07-08, 01:40:04,VALID,1001.45,VALID,0,VALID,90.1821,VALID,0,VALID,23.8945,VALID,186,VALID,0.555859,
2010-07-08, 01:41:04,VALID,1001.44,VALID,0,VALID,90.2355,VALID,0,VALID,23.875,VALID,214,VALID,0.678516,
2010-07-08, 01:42:04,VALID,1001.42,VALID,0,VALID,89.6023,VALID,0.112286,VALID,23.875,VALID,248,VALID,0.647266,
2010-07-08, 01:43:04,VALID,1001.39,VALID,0,VALID,89.7167,VALID,0,VALID,23.875,VALID,248,VALID,0.161719,
2010-07-08, 01:44:04,VALID,1001.34,VALID,0,VALID,89.7777,VALID,0,VALID,23.8555,VALID,248,VALID,0.361719,
2010-07-08, 01:45:04,VALID,1001.34,VALID,0,VALID,89.9532,VALID,0,VALID,23.8555,VALID,23,VALID,0.940234,
2010-07-08, 01:46:04,VALID,1001.36,VALID,0,VALID,90.1821,VALID,0,VALID,23.8573,VALID,42,VALID,0.750391,
2010-07-08, 01:47:04,VALID,1001.33,VALID,0,VALID,90.3652,VALID,0,VALID,23.8378,VALID,58,VALID,0.662891,
2010-07-08, 01:48:04,VALID,1001.32,VALID,0,VALID,90.4491,VALID,0.112286,VALID,23.7775,VALID,76,VALID,0.812109,
2010-07-08, 01:49:04,VALID,1001.34,VALID,0,VALID,90.5865,VALID,0,VALID,23.7579,VALID,76,VALID,0.959375,
2010-07-08, 01:50:04,VALID,1001.28,VALID,0,VALID,90.8383,VALID,0,VALID,23.7402,VALID,76,VALID,0.907812,
2010-07-08, 01:51:04,VALID,1001.29,VALID,0,VALID,91.0519,VALID,0,VALID,23.7616,VALID,73,VALID,1.11758,
2010-07-08, 01:52:04,VALID,1001.26,VALID,0,VALID,91.3571,VALID,0,VALID,23.7402,VALID,67,VALID,1.61914,
2010-07-08, 01:53:04,VALID,1001.26,VALID,0,VALID,91.4791,VALID,0,VALID,23.7402,VALID,68,VALID,1.70195,
2010-07-08, 01:54:04,VALID,1001.25,VALID,0,VALID,91.7004,VALID,0,VALID,23.7402,VALID,68,VALID,1.58867,
2010-07-08, 01:55:04,VALID,1001.23,VALID,0,VALID,91.9598,VALID,0,VALID,23.7402,VALID,64,VALID,1.43047,
2010-07-08, 01:56:04,VALID,1001.2,VALID,0,VALID,92.0285,VALID,0,VALID,23.742,VALID,60,VALID,1.1957,
2010-07-08, 01:57:04,VALID,1001.2,VALID,0,VALID,91.9674,VALID,0,VALID,23.7012,VALID,59,VALID,0.947656,
2010-07-08, 01:58:04,VALID,1001.17,VALID,0,VALID,91.9522,VALID,0,VALID,23.7012,VALID,59,VALID,0.855078,
2010-07-08, 01:59:04,VALID,1001.17,VALID,0,VALID,91.9522,VALID,0,VALID,23.6817,VALID,59,VALID,0.650391,
2010-07-08, 02:00:04,VALID,1001.17,VALID,0,VALID,91.9064,VALID,0,VALID,23.6622,VALID,59,VALID,0.688281,
2010-07-08, 02:01:04,VALID,1001.16,VALID,0,VALID,91.914,VALID,0,VALID,23.6835,VALID,48,VALID,0.759375,
2010-07-08, 02:02:04,VALID,1001.17,VALID,0,VALID,91.8759,VALID,0,VALID,23.6622,VALID,59,VALID,0.975,
2010-07-08, 02:03:04,VALID,1001.1,VALID,0,VALID,91.8454,VALID,0,VALID,23.6622,VALID,44,VALID,1.0543,
2010-07-08, 02:04:04,VALID,1001.12,VALID,0,VALID,91.8606,VALID,0,VALID,23.6427,VALID,43,VALID,1.08203,
2010-07-08, 02:05:04,VALID,1001.11,VALID,0,VALID,91.9522,VALID,0,VALID,23.6427,VALID,43,VALID,0.723047,
2010-07-08, 02:06:04,VALID,1001.08,VALID,0,VALID,92.0056,VALID,0,VALID,23.6427,VALID,40,VALID,0.772266,
2010-07-08, 02:07:04,VALID,1001.1,VALID,0,VALID,92.0666,VALID,0,VALID,23.6232,VALID,40,VALID,0.905078,
2010-07-08, 02:08:04,VALID,1001.06,VALID,0,VALID,92.12,VALID,0,VALID,23.6036,VALID,38,VALID,0.820703,
2010-07-08, 02:09:04,VALID,1001.06,VALID,0,VALID,92.1506,VALID,0,VALID,23.6036,VALID,38,VALID,0.623828,
2010-07-08, 02:10:04,VALID,1001.07,VALID,0,VALID,92.1963,VALID,0,VALID,23.5841,VALID,38,VALID,0.817969,
2010-07-08, 02:11:04,VALID,1001.05,VALID,0,VALID,92.2726,VALID,0,VALID,23.5841,VALID,45,VALID,0.969141,
2010-07-08, 02:12:04,VALID,1001.08,VALID,0,VALID,92.2192,VALID,0,VALID,23.5859,VALID,45,VALID,0.880078,
2010-07-08, 02:13:04,VALID,1001.06,VALID,0,VALID,92.1658,VALID,0,VALID,23.5646,VALID,45,VALID,0.569531,
2010-07-08, 02:14:04,VALID,1001.08,VALID,0,VALID,92.2268,VALID,0,VALID,23.5451,VALID,45,VALID,0.722656,
2010-07-08, 02:15:04,VALID,1001.03,VALID,0,VALID,92.2345,VALID,0,VALID,23.5238,VALID,45,VALID,0.863281,
2010-07-08, 02:16:04,VALID,1001.03,VALID,0,VALID,92.2497,VALID,0,VALID,23.5451,VALID,45,VALID,0.706641,
2010-07-08, 02:17:04,VALID,1001.01,VALID,0.5,VALID,92.2574,VALID,0,VALID,23.5451,VALID,39,VALID,0.857031,
2010-07-08, 02:18:04,VALID,1000.99,VALID,0,VALID,92.2803,VALID,0,VALID,23.5469,VALID,38,VALID,0.571094,
2010-07-08, 02:19:04,VALID,1000.97,VALID,0,VALID,92.2879,VALID,0,VALID,23.5061,VALID,38,VALID,0.485938,
2010-07-08, 02:20:04,VALID,1000.93,VALID,0,VALID,92.2803,VALID,0,VALID,23.4866,VALID,38,VALID,0.524219,
2010-07-08, 02:21:04,VALID,1000.9,VALID,0,VALID,92.3184,VALID,0,VALID,23.4866,VALID,38,VALID,0.366797,
2010-07-08, 02:22:04,VALID,1000.9,VALID,0,VALID,92.3184,VALID,0,VALID,23.4866,VALID,38,VALID,0.519922,
2010-07-08, 02:23:04,VALID,1000.86,VALID,0,VALID,92.3566,VALID,0,VALID,23.4866,VALID,38,VALID,0.523047,
2010-07-08, 02:24:04,VALID,1000.87,VALID,0,VALID,92.3794,VALID,0,VALID,23.5061,VALID,38,VALID,0.401563,
2010-07-08, 02:25:04,VALID,1000.83,VALID,0,VALID,92.4405,VALID,0,VALID,23.5061,VALID,38,VALID,0.223438,
2010-07-08, 02:26:04,VALID,1000.82,VALID,0,VALID,92.4252,VALID,0,VALID,23.4866,VALID,38,VALID,0.447266,
2010-07-08, 02:27:04,VALID,1000.8,VALID,0,VALID,92.41,VALID,0,VALID,23.4671,VALID,38,VALID,0.605469,
2010-07-08, 02:28:04,VALID,1000.82,VALID,0,VALID,92.3413,VALID,0,VALID,23.4671,VALID,38,VALID,0.571484,
2010-07-08, 02:29:04,VALID,1000.8,VALID,0,VALID,92.3108,VALID,0,VALID,23.4671,VALID,38,VALID,0.535547,
2010-07-08, 02:30:04,VALID,1000.78,VALID,0,VALID,92.2879,VALID,0,VALID,23.4671,VALID,38,VALID,0.392969,
2010-07-08, 02:31:04,VALID,1000.77,VALID,0,VALID,92.3031,VALID,0,VALID,23.4866,VALID,38,VALID,0.136328,
2010-07-08, 02:32:04,VALID,1000.73,VALID,0,VALID,92.3031,VALID,0,VALID,23.4653,VALID,38,VALID,0.0210938,
2010-07-08, 02:33:04,VALID,1000.72,VALID,0,VALID,92.3566,VALID,0,VALID,23.4671,VALID,38,VALID,0,
2010-07-08, 02:34:04,VALID,1000.72,VALID,0,VALID,92.3794,VALID,0,VALID,23.4475,VALID,38,VALID,0,
2010-07-08, 02:35:04,VALID,1000.69,VALID,0,VALID,92.3947,VALID,0,VALID,23.4475,VALID,38,VALID,0,
2010-07-08, 02:36:04,VALID,1000.67,VALID,0,VALID,92.41,VALID,0,VALID,23.4475,VALID,38,VALID,0,
2010-07-08, 02:37:04,VALID,1000.65,VALID,0,VALID,92.4557,VALID,0,VALID,23.428,VALID,38,VALID,0,
2010-07-08, 02:38:04,VALID,1000.66,VALID,0,VALID,92.471,VALID,0,VALID,23.428,VALID,38,VALID,0,
2010-07-08, 02:39:04,VALID,1000.61,VALID,0,VALID,92.4786,VALID,0,VALID,23.4085,VALID,38,VALID,0.449219,
2010-07-08, 02:40:04,VALID,1000.64,VALID,0,VALID,92.3566,VALID,0,VALID,23.3677,VALID,38,VALID,0.651563,
2010-07-08, 02:41:04,VALID,1000.62,VALID,0,VALID,92.3184,VALID,0,VALID,23.389,VALID,38,VALID,0.578125,
2010-07-08, 02:42:04,VALID,1000.61,VALID,0,VALID,92.3566,VALID,0,VALID,23.389,VALID,38,VALID,0.516406,
2010-07-08, 02:43:04,VALID,1000.57,VALID,0,VALID,92.4176,VALID,0,VALID,23.4085,VALID,38,VALID,0.639063,
2010-07-08, 02:44:04,VALID,1000.53,VALID,0,VALID,92.4786,VALID,0,VALID,23.428,VALID,38,VALID,0.442578,
2010-07-08, 02:45:04,VALID,1000.55,VALID,0,VALID,92.4939,VALID,0,VALID,23.428,VALID,38,VALID,0.396094,
2010-07-08, 02:46:04,VALID,1000.49,VALID,0,VALID,92.4863,VALID,0,VALID,23.4067,VALID,38,VALID,0.544922,
2010-07-08, 02:47:04,VALID,1000.48,VALID,0,VALID,92.5015,VALID,0,VALID,23.428,VALID,38,VALID,0.581641,
2010-07-08, 02:48:04,VALID,1000.47,VALID,0,VALID,92.4939,VALID,0,VALID,23.4475,VALID,38,VALID,0.469531,
2010-07-08, 02:49:04,VALID,1000.46,VALID,0,VALID,92.4634,VALID,0,VALID,23.428,VALID,38,VALID,0.625781,
2010-07-08, 02:50:04,VALID,1000.43,VALID,0,VALID,92.4328,VALID,0,VALID,23.4085,VALID,38,VALID,0.513281,
2010-07-08, 02:51:04,VALID,1000.43,VALID,0,VALID,92.3794,VALID,0,VALID,23.428,VALID,38,VALID,0.510156,
2010-07-08, 02:52:04,VALID,1000.4,VALID,0,VALID,92.3794,VALID,0,VALID,23.3872,VALID,38,VALID,0.313281,
2010-07-08, 02:53:04,VALID,1000.39,VALID,0,VALID,92.3031,VALID,0,VALID,23.389,VALID,39,VALID,0.760156,
2010-07-08, 02:54:04,VALID,1000.38,VALID,0,VALID,92.2345,VALID,0,VALID,23.389,VALID,42,VALID,0.557031,
2010-07-08, 02:55:04,VALID,1000.34,VALID,0,VALID,92.1124,VALID,0,VALID,23.35,VALID,42,VALID,0.485547,
2010-07-08, 02:56:04,VALID,1000.3,VALID,0,VALID,92.0437,VALID,0,VALID,23.3305,VALID,42,VALID,0.470703,
2010-07-08, 02:57:04,VALID,1000.29,VALID,0,VALID,92.0514,VALID,0,VALID,23.3305,VALID,42,VALID,0.566406,
2010-07-08, 02:58:04,VALID,1000.28,VALID,0,VALID,92.12,VALID,0,VALID,23.311,VALID,42,VALID,0.550781,
2010-07-08, 02:59:04,VALID,1000.28,VALID,0,VALID,92.1963,VALID,0,VALID,23.3092,VALID,42,VALID,0.557813,
2010-07-08, 03:00:04,VALID,1000.26,VALID,0,VALID,92.3031,VALID,0,VALID,23.311,VALID,42,VALID,0.555078,
2010-07-08, 03:01:04,VALID,1000.25,VALID,0,VALID,92.4023,VALID,0,VALID,23.3305,VALID,42,VALID,0.462891,
2010-07-08, 03:02:04,VALID,1000.26,VALID,0,VALID,92.4786,VALID,0,VALID,23.3305,VALID,42,VALID,0.318359,
2010-07-08, 03:03:04,VALID,1000.22,VALID,0,VALID,92.5397,VALID,0,VALID,23.3305,VALID,42,VALID,0.294531,
2010-07-08, 03:04:04,VALID,1000.22,VALID,0,VALID,92.5778,VALID,0,VALID,23.2897,VALID,42,VALID,0.182031,
2010-07-08, 03:05:04,VALID,1000.19,VALID,0,VALID,92.616,VALID,0,VALID,23.3305,VALID,42,VALID,0.00351562,
2010-07-08, 03:06:04,VALID,1000.19,VALID,0,VALID,92.6541,VALID,0,VALID,23.2915,VALID,42,VALID,0,
2010-07-08, 03:07:04,VALID,1000.19,VALID,0,VALID,92.677,VALID,0,VALID,23.3127,VALID,42,VALID,0,
2010-07-08, 03:08:04,VALID,1000.18,VALID,0,VALID,92.6999,VALID,0,VALID,23.2915,VALID,42,VALID,0,
2010-07-08, 03:09:05,VALID,1000.18,VALID,0,VALID,92.7533,VALID,0,VALID,23.2915,VALID,42,VALID,0.0328125,
2010-07-08, 03:10:05,VALID,1000.17,VALID,0,VALID,92.8143,VALID,0,VALID,23.311,VALID,42,VALID,0.317578,
2010-07-08, 03:11:05,VALID,1000.17,VALID,0,VALID,92.8601,VALID,0,VALID,23.311,VALID,42,VALID,0.371484,
2010-07-08, 03:12:05,VALID,1000.16,VALID,0,VALID,92.8601,VALID,0,VALID,23.2915,VALID,42,VALID,0.411328,
2010-07-08, 03:13:05,VALID,1000.16,VALID,0,VALID,92.8906,VALID,0,VALID,23.2915,VALID,42,VALID,0.315234,
2010-07-08, 03:14:05,VALID,1000.17,VALID,0,VALID,92.9135,VALID,0,VALID,23.311,VALID,42,VALID,0.341016,
2010-07-08, 03:15:05,VALID,1000.13,VALID,0,VALID,92.9364,VALID,0,VALID,23.2915,VALID,42,VALID,0.394922,
2010-07-08, 03:16:05,VALID,1000.13,VALID,0,VALID,92.9288,VALID,0,VALID,23.2915,VALID,42,VALID,0.262109,
2010-07-08, 03:17:05,VALID,1000.09,VALID,0,VALID,92.9517,VALID,0,VALID,23.2915,VALID,42,VALID,0.153125,
2010-07-08, 03:18:05,VALID,1000.08,VALID,0,VALID,92.9822,VALID,0,VALID,23.2702,VALID,42,VALID,0.225781,
2010-07-08, 03:19:05,VALID,1000.08,VALID,0,VALID,92.9974,VALID,0,VALID,23.2915,VALID,42,VALID,0,
2010-07-08, 03:20:05,VALID,1000.06,VALID,0,VALID,92.9822,VALID,0,VALID,23.2719,VALID,42,VALID,0,
2010-07-08, 03:21:05,VALID,1000.07,VALID,0,VALID,93.028,VALID,0,VALID,23.2915,VALID,42,VALID,0,
2010-07-08, 03:22:05,VALID,1000.08,VALID,0,VALID,93.0356,VALID,0,VALID,23.311,VALID,42,VALID,0,
2010-07-08, 03:23:05,VALID,1000.08,VALID,0,VALID,93.0661,VALID,0,VALID,23.311,VALID,42,VALID,0,
2010-07-08, 03:24:05,VALID,1000.08,VALID,0,VALID,93.0661,VALID,0,VALID,23.311,VALID,42,VALID,0,
2010-07-08, 03:25:05,VALID,1000.06,VALID,0,VALID,93.0814,VALID,0,VALID,23.311,VALID,160,VALID,0.204688,
2010-07-08, 03:26:05,VALID,1000.08,VALID,0,VALID,92.9517,VALID,0,VALID,23.311,VALID,159,VALID,1.47148,
2010-07-08, 03:27:05,VALID,1000.06,VALID,0,VALID,92.3337,VALID,0,VALID,23.428,VALID,170,VALID,1.17891,
2010-07-08, 03:28:05,VALID,1000.05,VALID,0,VALID,91.6851,VALID,0,VALID,23.5451,VALID,166,VALID,0.982422,
2010-07-08, 03:29:05,VALID,1000.04,VALID,0,VALID,90.9909,VALID,0,VALID,23.6036,VALID,166,VALID,1.19883,
2010-07-08, 03:30:05,VALID,1000.01,VALID,0,VALID,90.6551,VALID,0,VALID,23.6622,VALID,172,VALID,1.26289,
2010-07-08, 03:31:05,VALID,999.985,VALID,0,VALID,90.0524,VALID,0,VALID,23.7012,VALID,169,VALID,1.36602,
2010-07-08, 03:32:05,VALID,1000.03,VALID,0,VALID,89.8388,VALID,0,VALID,23.7597,VALID,167,VALID,1.26953,
2010-07-08, 03:33:05,VALID,1000,VALID,0,VALID,89.8235,VALID,0,VALID,23.7793,VALID,166,VALID,1.16172,
2010-07-08, 03:34:05,VALID,1000,VALID,0,VALID,89.732,VALID,0,VALID,23.7775,VALID,179,VALID,1.35391,
2010-07-08, 03:35:05,VALID,1000,VALID,0,VALID,89.6786,VALID,0,VALID,23.8378,VALID,188,VALID,1.19414,
2010-07-08, 03:36:05,VALID,1000.02,VALID,0,VALID,89.1368,VALID,0,VALID,23.8573,VALID,191,VALID,1.20586,
2010-07-08, 03:37:05,VALID,999.983,VALID,0,VALID,88.5875,VALID,0,VALID,23.8963,VALID,192,VALID,1.55898,
2010-07-08, 03:38:05,VALID,1000.01,VALID,0,VALID,87.9466,VALID,0,VALID,23.9159,VALID,181,VALID,1.47383,
2010-07-08, 03:39:05,VALID,1000,VALID,0,VALID,88.3434,VALID,0,VALID,23.9549,VALID,206,VALID,0.895312,
2010-07-08, 03:40:05,VALID,1000.01,VALID,0,VALID,88.7554,VALID,0,VALID,23.9549,VALID,195,VALID,0.8625,
2010-07-08, 03:41:05,VALID,1000.01,VALID,0,VALID,88.3586,VALID,0,VALID,23.9567,VALID,207,VALID,1.25,
2010-07-08, 03:42:05,VALID,1000,VALID,0,VALID,88.0763,VALID,0,VALID,23.9549,VALID,185,VALID,1.09609,
2010-07-08, 03:43:05,VALID,999.969,VALID,0,VALID,88.3892,VALID,0,VALID,23.9744,VALID,208,VALID,0.849609,
2010-07-08, 03:44:05,VALID,999.974,VALID,0,VALID,87.9848,VALID,0,VALID,23.9354,VALID,202,VALID,1.19531,
2010-07-08, 03:45:05,VALID,999.949,VALID,0,VALID,87.5651,VALID,0,VALID,23.9159,VALID,194,VALID,1.06836,
2010-07-08, 03:46:05,VALID,999.972,VALID,0,VALID,87.7101,VALID,0,VALID,23.9354,VALID,178,VALID,1.25078,
2010-07-08, 03:47:05,VALID,999.972,VALID,0,VALID,88.0992,VALID,0,VALID,23.9159,VALID,191,VALID,0.00585938,